Hourly Data Report for October 26, 2016

All times are specified in Local Standard Time (LST). Add 1 hour to adjust for Daylight Saving Time where and when it is observed.

KUGAARUK CLIMATE
NUNAVUT

68°32'15.060" N
89°47'47.020" W
15.80 m
2303094
71407
NBB

Download Data

Hourly Data (October 2016)
Hourly Data Report for October 26, 2016
Temp Definition
°C
Dew Point Temp Definition
°C
Rel Hum Definition
%
Wind Dir Definition
10's deg

Wind Spd Definition
km/h
Visibility Definition
km
Stn Press Definition
kPa
Hmdx Definition


Wind Chill Definition


Weather Definition


TIME
00:00 -8.6 -9.9 90 23 23   101.85   -17 LegendNANA
01:00 -8.4 -9.6 91 24 25   101.77   -17 LegendNANA
02:00 -8.0 -9.1 92 23 21   101.72   -16 LegendNANA
03:00 -7.8 -9.1 90 23 21   101.67   -15 LegendNANA
04:00 -7.8 -9.2 90 23 21   101.60   -15 LegendNANA
05:00 -8.2 -9.9 87 25 15   101.55   -15 LegendNANA
06:00 -8.9 -10.3 89 26 13   101.48   -15 LegendNANA
07:00 -9.3 -10.6 91 25 10   101.40   -14 LegendNANA
08:00 -9.2 -10.6 89 24 19   101.32   -17 LegendNANA
09:00 -8.8 -10.4 88 23 19   101.26   -16 LegendNANA
10:00 -7.7 -9.4 88 23 23   101.18   -15 LegendNANA
11:00 -7.3 -8.5 91 24 18   101.10   -14 LegendNANA
12:00 -6.9 -8.0 92 24 20   101.02   -14 LegendNANA
13:00 -6.7 -7.7 93 26 21   100.97   -14 LegendNANA
14:00 -7.2 -8.3 92 27 21   100.93   -15 LegendNANA
15:00 -7.1 -8.4 91 28 25   100.90   -15 LegendNANA
16:00 -7.2 -8.5 90 28 24   100.91   -15 LegendNANA
17:00 -8.0 -9.9 86 35 27   100.94   -16 LegendNANA
18:00 -9.1 -11.5 83 35 25   100.99   -18 LegendNANA
19:00 -9.9 -12.8 79 34 26   101.05   -19 LegendNANA
20:00 -11.7 -15.0 77 34 26   101.10   -21 LegendNANA
21:00 -12.2 -15.1 79 32 14   101.16   -19 LegendNANA
22:00 -12.0 -15.2 77 33 22   101.21   -21 LegendNANA
23:00 -13.1 -16.2 77 34 18   101.25   -21 LegendNANA

Notes on Data Quality.

Legend

  • E = Estimated
  • M = Missing
  • NA = Not Available
  • ‡ = Partner data that is not subject to review by the National Climate Archives
Date modified: